Flag for U.S.A. Weather past 2 weeks in Wilmington, Delaware, U.S.A.

Now
67 °F

Light rain. Passing clouds.


Feels Like: 67 °F
Forecast: 67 / 76 °F
Wind: 6 mph from Northeast

Location: New Castle County Airport

Current Time: Aug 2, 2014 at 5:02:53 AM

Latest Report: Aug 2, 2014 at 3:51 AM


Visibility: 7 mi

Pressure: 30.14 "Hg

Humidity: 93%

Dew point: 65 °F

Location of WilmingtonLocation

Historic Weather in Wilmington — Graph

°F

Wilmington temperature yesterday

Maximum temperature yesterday: 80 °F (at 12:51 PM)
Minimum temperature yesterday: 70 °F (at 3:51 PM)
Average temperature yesterday: 74 °F

Past Weeks' High & Low Weather Summary

 TemperatureHumidityPressure
High90 °F (Jul 23, 2:51 PM)96% (Jul 24, 2:51 AM)30.25 "Hg (Jul 24, 2:51 AM)
Low58 °F (Jul 18, 5:51 AM)37% (Jul 18, 4:51 PM)29.56 "Hg (Jul 28, 4:51 AM)
Average74 °F69%30.02 "Hg
* Reported Jul 18 3:51 AM — Aug 2 3:51 AM, Wilmington, Weather by CustomWeather, © 2014

Note: Actual official high and low records may vary slightly from our data, if they occured in-between our weather recording intervals... More about our weather records

Advertising

Wilmington weather history for previous 24 hours

 ConditionsComfort  
Time TempWeatherWind HumidityBarometerVisibility
3:51 AM
Aug 2
67 °FLight rain. Passing clouds.6 mph93%30.14 "Hg7 mi
2:51 AM68 °FRain. Fog.3 mph93%30.16 "Hg6 mi
1:51 AM69 °FRain. Passing clouds.No wind87%30.18 "Hg7 mi
12:51 AM71 °FLight rain. Clear.3 mph87%30.17 "Hg10 mi
11:51 PM
Aug 1
72 °FPassing clouds.5 mph87%30.18 "Hg10 mi
10:51 PM72 °FOvercast.3 mph91%30.18 "Hg10 mi
9:51 PM72 °FOvercast.3 mph91%30.19 "Hg10 mi
8:51 PM72 °FOvercast.6 mph91%30.18 "Hg10 mi
7:51 PM72 °FPartly sunny.6 mph91%30.18 "Hg10 mi
6:51 PM73 °FSunny.6 mph88%30.18 "Hg10 mi
5:51 PM72 °FSunny.6 mph87%30.19 "Hg10 mi
4:51 PM72 °FMostly cloudy.8 mph91%30.19 "Hg10 mi
3:51 PM70 °FLight rain. Overcast.10 mph90%30.20 "Hg7 mi
2:51 PM72 °FLight rain. More clouds than sun.12 mph81%30.19 "Hg6 mi
1:51 PM78 °FThundershowers. Partly sunny.12 mph74%30.19 "Hg10 mi
12:51 PM80 °FBroken clouds.5 mph69%30.19 "Hg10 mi
11:51 AM79 °FSunny.7 mph74%30.20 "Hg10 mi
10:51 AM79 °FSunny.6 mph74%30.19 "Hg10 mi
9:51 AM78 °FSunny.6 mph76%30.18 "Hg10 mi
8:51 AM75 °FSunny.5 mph82%30.19 "Hg9 mi
7:51 AM73 °FSunny.3 mph84%30.18 "Hg9 mi
6:51 AM73 °FClear.5 mph84%30.17 "Hg9 mi
5:51 AM73 °FClear.7 mph84%30.16 "Hg10 mi
Weather by CustomWeather, © 2014

See weather overviewHow to use our weather pages